Stations météo

réclame
Mon MeteoGroup
Dieppe, France (7040): Température de l'air & dewpoint: 16.07.2018 08:00:00 - 22.07.2018 08:00:00 (CEST)Dieppe, France (7040): Température de l'air 5cm: 16.07.2018 08:00:00 - 22.07.2018 08:00:00 (CEST)Dieppe, France (7040): Vitesse du vent & gusts: 16.07.2018 08:00:00 - 22.07.2018 08:00:00 (CEST)Dieppe, France (7040): Direction du vent: 16.07.2018 08:00:00 - 22.07.2018 08:00:00 (CEST)Dieppe, France (7040): reduced air pressure: 16.07.2018 08:00:00 - 22.07.2018 08:00:00 (CEST)Dieppe, France (7040): visibility: 16.07.2018 08:00:00 - 22.07.2018 08:00:00 (CEST)Dieppe, France (7040): Quantités de précipitations: 16.07.2018 08:00:00 - 22.07.2018 08:00:00 (CEST)
Date & Time tt [°C] td [°C] tt 5cm [°C] ff [km/h] ff [knt] fx [km/h] fx [knt] dd ppp [hPa] vv [km] rr [mm]
22.07.2018 08:00:00 15,7 14,9 13,8 11 6 19 11 S 1017,0 3,0 0,0
22.07.2018 07:00:00 15,3 14,5 13,6 11 6 17 9 S 1016,6 - 0,2
22.07.2018 06:00:00 15,4 14,6 13,6 11 6 16 9 S 1016,2 - 0,0
22.07.2018 05:00:00 15,6 14,5 13,7 11 6 16 9 SSE 1016,0 - 0,0
22.07.2018 04:00:00 16,6 15,3 14,5 9 5 13 7 SSE 1016,1 - 0,0
22.07.2018 03:00:00 17,2 15,2 15,2 7 4 10 6 S 1016,2 - 0,0
22.07.2018 02:00:00 18,3 15,2 16,0 5 3 13 7 SW 1016,4 - 0,0
22.07.2018 01:00:00 18,7 15,2 17,0 9 5 16 8 WNW 1016,3 - 0,0
22.07.2018 00:00:00 18,8 15,7 17,2 8 5 18 10 WNW 1016,2 - 0,0
21.07.2018 23:00:00 19,2 16,6 17,5 8 4 16 8 WNW 1016,0 - 0,0
21.07.2018 22:00:00 19,5 16,7 17,9 10 6 19 10 WNW 1015,7 - 0,0
21.07.2018 21:00:00 19,6 14,4 19,1 6 4 12 6 NW 1015,2 - 0,0
21.07.2018 20:00:00 20,6 14,3 21,1 8 4 13 7 NW 1014,9 - 0,0
21.07.2018 19:00:00 21,4 13,8 22,4 9 5 14 7 NW 1015,0 - 0,0
21.07.2018 18:00:00 23,0 15,1 24,5 8 4 11 6 NNW 1015,0 - 0,0
21.07.2018 17:00:00 22,1 15,0 21,9 5 3 11 6 WNW 1014,9 10 0,0
21.07.2018 16:00:00 20,6 15,8 19,9 8 4 13 7 NNW 1015,0 - 0,0
21.07.2018 15:00:00 20,0 15,2 20,3 5 3 14 8 NNE 1014,9 - 0,0
21.07.2018 14:00:00 20,5 15,7 21,5 9 5 13 7 N 1014,7 - 0,0
21.07.2018 13:00:00 20,5 16,1 19,7 5 3 8 5 WNW 1014,4 - 0,0
21.07.2018 12:00:00 19,8 15,9 18,6 4 2 10 6 NW 1013,9 - 0,0
21.07.2018 11:00:00 19,3 15,6 18,6 7 4 11 6 N 1013,8 9 0,0
21.07.2018 10:00:00 19,1 16,0 18,9 0 0 17 9 N 1013,9 - 0,0
21.07.2018 09:00:00 18,4 16,6 16,7 8 5 14 8 S 1013,4 - 0,0
21.07.2018 08:00:00 18,0 16,3 16,5 5 3 10 5 SSE 1013,0 3,0 0,0
21.07.2018 07:00:00 17,9 16,1 16,3 5 3 12 7 SSE 1012,7 - 0,0
21.07.2018 06:00:00 17,9 16,2 16,4 6 4 13 7 S 1012,6 - 0,0
21.07.2018 05:00:00 18,1 16,4 16,4 7 4 10 6 SSE 1012,6 - 0,0
21.07.2018 04:00:00 18,1 16,3 16,5 5 3 12 6 S 1012,6 - 0,0
21.07.2018 03:00:00 18,2 16,4 16,3 6 3 13 7 SSW 1012,9 - 0,0
21.07.2018 02:00:00 18,4 16,6 16,4 8 4 17 9 SW 1013,2 - 0,0
21.07.2018 01:00:00 18,8 16,6 16,9 7 4 14 7 NW 1013,3 - 0,0
21.07.2018 00:00:00 18,6 16,0 16,9 7 4 13 7 NW 1013,3 - 0,0
20.07.2018 23:00:00 18,7 16,3 17,1 9 5 20 11 NW 1013,5 - 0,0
20.07.2018 22:00:00 18,9 16,9 17,1 10 5 20 11 NW 1013,3 - 0,0
20.07.2018 21:00:00 19,1 17,4 17,2 0 0 10 5 N 1013,1 - 0,0
20.07.2018 20:00:00 19,4 17,9 17,5 6 3 16 9 NE 1013,2 3,0 0,2
20.07.2018 19:00:00 19,5 17,5 17,6 10 5 21 11 NE 1013,3 - 0,0
20.07.2018 18:00:00 19,9 16,7 17,7 10 5 25 13 NNE 1013,5 - 0,0
20.07.2018 17:00:00 19,4 16,6 17,0 10 5 22 12 NNE 1013,7 5 0,0
20.07.2018 16:00:00 19,0 17,0 17,0 8 4 20 11 NNE 1014,2 - 0,2
20.07.2018 15:00:00 19,3 18,0 17,2 7 4 15 8 ENE 1014,4 - 0,8
20.07.2018 14:00:00 19,1 17,6 17,0 2 1 8 5 NE 1014,6 - 0,8
20.07.2018 13:00:00 18,7 16,8 16,6 6 4 12 6 ENE 1015,0 - 1,2
20.07.2018 12:00:00 18,6 15,5 16,1 4 2 11 6 S 1014,9 - 1,2
20.07.2018 11:00:00 19,4 16,4 17,5 6 3 9 5 S 1014,8 12 0,0
20.07.2018 10:00:00 19,0 15,1 17,0 3 2 11 6 S 1015,0 - 0,0
20.07.2018 09:00:00 19,0 14,7 16,0 0 0 18 10 N 1014,6 - 0,4
20.07.2018 08:00:00 18,8 14,7 16,3 5 3 29 16 E 1014,5 - 0,2
20.07.2018 07:00:00 19,2 15,7 16,9 0 0 12 7 N 1014,9 - 0,0
20.07.2018 06:00:00 19,3 16,5 17,5 5 3 20 11 E 1015,0 - 0,2
20.07.2018 05:00:00 20,1 15,3 16,6 10 5 20 11 ESE 1015,1 - 0,2
20.07.2018 04:00:00 19,9 15,9 17,5 8 4 23 12 SSE 1015,2 - 0,4
20.07.2018 03:00:00 21,0 14,9 20,5 9 5 17 9 SSE 1015,7 - 0,0
20.07.2018 02:00:00 21,9 14,5 21,4 8 4 14 8 S 1016,2 - 0,0
20.07.2018 01:00:00 22,4 9,9 21,7 5 3 15 8 SSE 1016,2 - 0,0
20.07.2018 00:00:00 23,2 9,2 22,4 6 4 20 11 ESE 1015,8 - 0,0
19.07.2018 23:00:00 23,4 10,1 22,3 8 5 20 11 E 1015,8 - 0,0
19.07.2018 22:00:00 23,5 12,2 21,5 11 6 16 9 E 1015,2 - 0,0
19.07.2018 21:00:00 22,7 17,2 22,3 13 7 29 16 ENE 1015,3 - 0,0
19.07.2018 20:00:00 22,7 16,3 22,5 21 11 32 18 ENE 1015,5 - 0,0
19.07.2018 19:00:00 22,8 15,9 23,6 24 13 37 20 NE 1015,6 - 0,0
19.07.2018 18:00:00 22,4 16,7 24,2 22 12 35 19 NE 1016,0 - 0,0
19.07.2018 17:00:00 23,4 17,4 27,4 20 11 36 19 NE 1016,5 10 0,0
19.07.2018 16:00:00 23,1 17,3 24,7 22 12 31 17 NE 1017,1 - 0,0
19.07.2018 15:00:00 22,6 16,6 24,7 22 12 33 18 NE 1017,5 - 0,0
19.07.2018 14:00:00 22,9 17,4 24,0 21 11 30 16 NE 1017,8 7 0,0
19.07.2018 13:00:00 22,9 17,1 26,0 14 8 25 13 NE 1017,9 - 0,0
19.07.2018 12:00:00 23,2 17,0 26,3 11 6 22 12 NE 1018,1 - 0,0
19.07.2018 11:00:00 21,2 15,7 22,7 7 4 16 9 NE 1018,4 15 0,0
19.07.2018 10:00:00 21,2 15,1 23,9 8 4 13 7 NE 1018,7 - 0,0
19.07.2018 09:00:00 19,3 12,3 18,5 0 0 10 6 N 1018,6 - 0,0
19.07.2018 08:00:00 16,6 11,5 14,5 4 2 9 5 E 1018,7 10 0,0
19.07.2018 07:00:00 13,9 10,1 12,0 6 3 10 5 S 1018,5 - 0,0
19.07.2018 06:00:00 13,2 9,8 12,0 6 3 14 8 S 1018,5 - 0,0
19.07.2018 05:00:00 13,8 10,4 12,5 7 4 11 6 SSE 1018,7 - 0,0
19.07.2018 04:00:00 14,4 11,0 13,1 6 3 9 5 S 1018,8 - 0,0
19.07.2018 03:00:00 15,6 11,6 13,9 3 2 9 5 E 1019,1 - 0,0
19.07.2018 02:00:00 17,2 10,8 15,2 5 3 11 6 ENE 1019,2 - 0,0
19.07.2018 01:00:00 18,0 12,9 16,0 7 4 16 9 ENE 1018,8 - 0,0
19.07.2018 00:00:00 18,6 13,2 17,0 11 6 24 13 ENE 1018,7 - 0,0
18.07.2018 23:00:00 19,1 13,1 18,0 16 9 27 15 NE 1018,6 - 0,0
18.07.2018 22:00:00 19,1 12,6 18,2 16 9 28 15 NE 1018,5 - 0,0
18.07.2018 21:00:00 19,5 12,5 19,0 16 9 26 14 NE 1018,5 - 0,0
18.07.2018 20:00:00 20,1 12,8 21,7 10 5 24 13 NNE 1018,5 20 0,0
18.07.2018 19:00:00 20,4 13,4 24,4 11 6 26 14 NE 1018,7 - 0,0
18.07.2018 18:00:00 20,6 13,1 25,9 13 7 26 14 NE 1018,9 - 0,0
18.07.2018 17:00:00 20,3 13,7 24,4 11 6 27 14 NNE 1019,0 20 0,0
18.07.2018 16:00:00 20,0 13,2 25,5 15 8 26 14 N 1019,3 - 0,0
18.07.2018 15:00:00 20,0 12,2 26,5 16 9 25 13 N 1019,4 - 0,0
18.07.2018 14:00:00 20,3 13,5 26,7 14 8 23 12 N 1019,6 - 0,0
18.07.2018 13:00:00 21,9 13,8 26,8 12 6 18 10 N 1019,6 - 0,0
18.07.2018 12:00:00 22,1 13,7 22,6 8 4 11 6 NW 1019,6 - 0,0
18.07.2018 11:00:00 19,5 13,4 19,3 4 2 9 5 WNW 1019,6 15 0,0
18.07.2018 10:00:00 17,4 13,3 15,9 4 2 11 6 SSW 1019,8 - 0,0
18.07.2018 09:00:00 15,4 12,7 14,1 9 5 16 8 S 1019,6 - 0,0
18.07.2018 08:00:00 14,3 12,2 13,2 9 5 16 9 S 1019,4 10 0,0
18.07.2018 07:00:00 13,8 12,0 12,7 11 6 20 11 SSE 1019,3 - 0,0
18.07.2018 06:00:00 14,2 12,4 12,8 11 6 18 10 S 1019,2 - 0,0
18.07.2018 05:00:00 14,5 12,5 13,2 9 5 14 8 SSE 1019,0 - 0,0
18.07.2018 04:00:00 14,5 12,5 13,2 10 5 17 9 SSE 1019,0 - 0,0
18.07.2018 03:00:00 15,0 12,7 13,6 10 5 14 8 S 1019,2 - 0,0
18.07.2018 02:00:00 15,7 13,0 14,2 9 5 13 7 S 1019,3 - 0,0
18.07.2018 01:00:00 16,6 12,7 14,4 4 2 6 4 S 1019,3 - 0,0
18.07.2018 00:00:00 17,5 13,2 16,2 6 4 14 8 W 1019,1 - 0,0
17.07.2018 23:00:00 17,8 12,7 16,6 6 4 20 11 WNW 1019,1 - 0,0
17.07.2018 22:00:00 18,0 13,1 17,1 10 5 24 13 WNW 1018,9 - 0,0
17.07.2018 21:00:00 18,8 13,2 18,5 9 5 19 11 WNW 1018,7 - 0,0
17.07.2018 20:00:00 19,4 12,6 20,0 8 4 18 10 W 1018,2 20 0,0
17.07.2018 19:00:00 20,4 13,4 21,5 14 8 28 15 W 1018,4 - 0,0
17.07.2018 18:00:00 20,1 12,8 23,3 15 8 27 15 WNW 1018,5 - 0,0
17.07.2018 17:00:00 20,1 12,6 22,8 14 7 29 15 WNW 1018,8 20 0,0
17.07.2018 16:00:00 20,3 12,0 24,4 20 11 29 16 W 1019,1 - 0,0
17.07.2018 15:00:00 20,4 12,6 23,7 17 9 32 17 WNW 1019,0 - 0,0
17.07.2018 14:00:00 20,1 12,1 24,0 18 10 29 15 W 1019,1 18 0,0
17.07.2018 13:00:00 20,0 12,7 23,5 16 9 27 14 W 1019,0 - 0,0
17.07.2018 12:00:00 19,9 13,6 - 13 7 26 14 W 1018,6 - -
17.07.2018 11:00:00 - - - 16 9 25 14 W - 12 -
17.07.2018 10:00:00 19,0 13,2 20,2 16 8 29 16 W 1017,9 - 0,0
17.07.2018 09:00:00 18,5 12,9 20,1 17 9 26 14 W 1017,5 - 0,0
17.07.2018 08:00:00 17,9 12,1 17,9 15 8 27 14 W 1017,2 8 0,0
17.07.2018 07:00:00 17,9 12,1 16,9 18 10 26 14 W 1016,4 - 0,0
17.07.2018 06:00:00 18,2 13,9 17,0 16 9 31 17 W 1016,1 - 0,0
17.07.2018 05:00:00 18,8 15,7 16,8 21 11 37 20 W 1015,8 - 0,0
17.07.2018 04:00:00 18,4 15,8 16,3 16 9 26 14 SW 1015,7 - 0,0
17.07.2018 03:00:00 18,3 15,9 16,2 13 7 27 15 SW 1015,8 - 0,0
17.07.2018 02:00:00 18,1 15,2 16,2 12 7 22 12 SW 1015,9 - 0,0
17.07.2018 01:00:00 18,1 14,2 16,6 9 5 22 12 SW 1015,9 - 0,0
17.07.2018 00:00:00 18,7 13,3 17,4 14 8 23 12 WSW 1015,7 - 0,0
16.07.2018 23:00:00 19,1 13,9 17,8 11 6 23 13 WSW 1015,6 - 0,0
16.07.2018 22:00:00 20,0 14,4 19,3 11 6 19 10 W 1015,0 - 0,0
16.07.2018 21:00:00 20,0 14,6 19,6 11 6 22 12 WSW 1014,9 - 0,0
16.07.2018 20:00:00 20,7 14,3 20,8 15 8 23 12 W 1014,3 8 0,0
16.07.2018 19:00:00 22,4 14,8 24,5 11 6 22 12 W 1013,7 - 0,0
16.07.2018 18:00:00 22,5 15,8 24,6 15 8 26 14 W 1014,1 - 0,0
16.07.2018 17:00:00 22,3 16,3 24,8 18 10 27 15 W 1014,1 - 0,0
16.07.2018 16:00:00 22,0 16,3 25,3 16 8 26 14 W 1014,3 - 0,0
16.07.2018 15:00:00 22,1 16,6 26,3 16 9 28 15 W 1014,2 - 0,0
16.07.2018 14:00:00 21,8 16,5 25,2 14 7 23 12 W 1014,5 8 0,0
16.07.2018 13:00:00 21,7 16,4 25,0 13 7 24 13 WNW 1014,6 - 0,0
16.07.2018 12:00:00 22,0 16,3 25,4 10 6 16 8 W 1014,4 - 0,0
16.07.2018 11:00:00 21,0 16,0 22,2 6 4 19 10 W 1014,5 14 0,0
16.07.2018 10:00:00 20,4 16,0 21,2 12 6 21 11 W 1014,1 - 0,0
16.07.2018 09:00:00 19,2 15,9 18,4 8 4 14 8 W 1014,3 - 0,0
16.07.2018 08:00:00 17,2 13,5 16,6 8 5 14 8 S 1014,2 8 0,0

tt = Température de l'air
td = dewpoint
tt 5cm = Température de l'air 5cm
ff = Vitesse du vent
fx = gusts
dd = Direction du vent
ppp = reduced air pressure
vv = visibility
rr = Quantités de précipitations

stations d'obs. à proximité